"Pseudo-MPEC" for C3CRZZ1

Created 2022 Nov 24 21:22:06 UT using Find_Orb

Click here for an explanation of pseudo-MPECs

 
 Astrometry: 
     C3CRZZ1  C2022 11 23.19823 02 39 00.95 +34 03 29.6    ~BOIM 18.7 GVNEOCP703
     C3CRZZ1*1C2022 11 24.21882502 17 02.087+22 05 56.54   ~BO67 18.83GVNEOCP703
     C3CRZZ1 1C2022 11 24.22412002 16 54.613+22 01 42.78   ~BO67 18.55GVNEOCP703
     C3CRZZ1 1C2022 11 24.22935502 16 47.406+21 57 35.68   ~BO67x18.79GVNEOCP703
     C3CRZZ1 mC2022 11 24.25989402 16 04.346+21 33 05.54   ~BO6b 18.17GVNEOCPI52
     C3CRZZ1 mC2022 11 24.26006402 16 04.109+21 32 57.34   ~BO6b 18.21GVNEOCPI52
     C3CRZZ1 mC2022 11 24.26023402 16 03.875+21 32 49.09   ~BO6b 18.19GVNEOCPI52
     C3CRZZ1 mC2022 11 24.26040702 16 03.626+21 32 40.70   ~BO6b 18.23GVNEOCPI52
     C3CRZZ1 mC2022 11 24.35655002 13 49.832+20 14 22.31   ~BO8q 18.20GVNEOCPI52
     C3CRZZ1 mC2022 11 24.35672702 13 49.595+20 14 13.27   ~BO8q 18.30GVNEOCPI52
     C3CRZZ1 mC2022 11 24.35689802 13 49.332+20 14 04.88   ~BO8q 18.35GVNEOCPI52
     C3CRZZ1 mC2022 11 24.35706802 13 49.102+20 13 56.50   ~BO8q 18.49GVNEOCPI52
     C3CRZZ1 KC2022 11 24b`IpFvxw1).9ZOR+O8X-`Rkw:lj6tSPx#vN!N*f18%lo.D863yv?204
     C3CRZZ1 KC2022 11 24jMY]J1KTcNQ7*YBJjZ*6O8[*PKqO6tOJWmtBN,GYw+8?U]_s)x.gB72
     C3CRZZ1 KC2022 11 24(Z^2Astrometry\u,1E=Ys_Q!Ex[C]Mb9dx^Plg3LLEb!QNFn-s-204
     C3CRZZ1 KC2022 11 24^t-7/Pt7lg!c@_=pR*]X0(u13IW'V*in%v_44KL!MiAf,lr7O+!XB72
     C3CRZZ1 KC2022 11 243kODM_Op-TFmBL[HR\OBX;NJ4?S?AeyT1NR^g'.t5TA2ZZ29cTq$B72
     C3CRZZ1 KC2022 11 24.75169602 05 37.55 +14 38 24.2    ~BOKM 18.3 GXNEOCP595
     C3CRZZ1 KC2022 11 24]ulNew:d+Kl^c3?K./%)u9,/KErZPq7Cs?bqY'V^s:!a4Low+xrDK74
     C3CRZZ1 KC2022 11 24^'J)y*yO!jLN05yCpV\iJ]P80y5oR-:64dtgHsq#dC+N2+q(;-L?L06
     C3CRZZ1 KC2022 11 24kVXU0mJ!Ri(LW*redacted;NadKml^R=@mKF2WDKg8O)mn5\P9[gL06
     C3CRZZ1 KC2022 11 24BZ95LQAiK4:r!0OE5p7eS*Yhg/*ZDAZo0`RPK@DwA/ADv2/)qBr^K74
     C3CRZZ1 KC2022 11 24,VrPWtKclickki\Ri4\oTZlPisKhI]QSTt%l5?0F9\8]rD,Zu::BK74
     C3CRZZ1 KC2022 11 24D^;oL-#K;QPbWf'B2tX$1PH86(gPw/O[$DaC+dnGycMejIQ'VPWXL01
     C3CRZZ1 KC2022 11 24hGa/R8?'sCKZ@1x5XnhABSeE^)M:3^M!,h1^*?yMj3H!1]3K.XMGL01
     C3CRZZ1 KC2022 11 241N1Dg^MLeeRo*+vtrDP][=c`?rSAidIc68ccNNJwX/s-'r7dST(nL01
     C3CRZZ1 KC2022 11 244!fBBU`l/I\G2F?:Ni7axen%]+D69L^(MKJJ0pjZRkFR1a[TRBS=L01
     C3CRZZ1 KC2022 11 2462TuVEh\)p0T@45Q*%e6p1i[LJ6YFCP\U+1fPyHYJ2hjF#uPhereL01
     C3CRZZ1 KC2022 11 24\`A,L0hR4X14!bJ0m[vw4y0^1x)X!Xb7s)DEmfQ[Dcoy%s/LT`ICK74
     C3CRZZ1 KC2022 11 24_Y'p2d(3CE%(I;P5l13/[2hTu:c[=,@QgkcRsPOrUE!$:Qm`ZpQFK74
     C3CRZZ1 KC2022 11 248,BSIWJ/R!vCd(po1iJVD)puvW71'iW?OSrReCa=x7:=@d2Q-\bQ203
     C3CRZZ1 KC2022 11 24eX5r';^\jl.v1+]N*NB!n,3nobE5tLQdx29p]%YMdpUHDwIm^\GR104
     C3CRZZ1 KC2022 11 24,cQAfor]WLGU^(n.xQK#0RB.j%_:rCv?O(('#?^Og:go.vG:!KJSK74
     C3CRZZ1 KC2022 11 24G+;7dUQ\x(U(d7/hVGqCa_lJ5:d6?hCfs9W]n/sFkN(U?7wv_os.104
     C3CRZZ1 KC2022 11 24fJCZ43SW0sP#PhK_;LPDT`cl]_+RY+:y07Yx$fUi_,l5NrOCDYgx203
     C3CRZZ1 KC2022 11 24?+D#jO/#5$E;explanation5CtUyc:_/*g'Y0K8R$2]Hi'xx+gVa104
     C3CRZZ1 KC2022 11 242rQ/l,./!G+4FdyKVQOhhxWoP0=f)8m8^S!mTH2_72Ij]u3Hc1X;203
     C3CRZZ1 KC2022 11 24.82434302 03 57.49 +13 34 39.3    ~BOKM 18.0 GXNEOCP595
     C3CRZZ1 KC2022 11 24.83121702 03 47.98 +13 28 35.4    ~BOKM       XNEOCP595
     C3CRZZ1 KC2022 11 24jYXVu;IBS-u.UPWAiHS9l6sg#uPh!.)EA;pV%8dfhrAr)baQoTC`K63
     C3CRZZ1 KC2022 11 24'dc#:RXI5$jQZaa_SKKuDGmM//YYcV?kA(H[4^J*)Uj#wh)sf*f9K63
     C3CRZZ1 KC2022 11 24.84716602 03 28.723+13 14 02.65   ~BOLM 19.1 GVNEOCPJ95
     C3CRZZ1 KC2022 11 24.86814802 02 59.837+12 55 25.97   ~BOLM 19.4 GVNEOCPJ95
     C3CRZZ1 KC2022 11 24.87116202 02 55.711+12 52 45.59   ~BOLM 18.9 GVNEOCPJ95
     C3CRZZ1 KC2022 11 24.87483802 02 50.659+12 49 28.92   ~BOLM 19.1 GVNEOCPJ95
     C3CRZZ1 KC2022 11 24.87793102 02 46.378+12 46 44.29   ~BOLM 18.9 GVNEOCPJ95

Station data:
(104) San Marcello Pistoiese  (N44.064178 E10.803750)  Italy.  Observers P.
   Bacci, M. Maestripieri. Measurers P. Bacci, L. Tesi, G. Fagioli. 0.60-m
   reflector + CCD.
(203) GiaGa Observatory  (N45.541405 E8.995500)  Italy.  Observers S. Foglia,
   G. Galli. Measurer G. Galli. 0.36-m f/5.76 Schmidt-Cassegrain + CCD.
(204) Schiaparelli Observatory  (N45.867930 E8.770800)  Italy.  Observer L.
   Buzzi. 0.60-m f/4.64 Newtonian + CCD0.84-m f/3.5 reflector + CCD.
(595) Farra d'Isonzo  (N45.915731 E13.525780)  Italy.  Observers S. Aschi, E.
   Pettarin, G. Panterotto. Measurers S. Aschi, E. Pettarin. 0.40-m f/5.15
   reflector + CCD.
(703) Catalina Sky Survey  (N32.417003 W110.732640)  US/Arizona.  Observers
   T. A. Pruyne, B. M. Africano, E. J. Christensen, G. A. Farneth, D. C.
   Fuls, A. R. Gibbs, A. D. Grauer, H. Gröller, J. A. Johnson, R. A.
   Kowalski, S. M. Larson, G. J. Leonard, D. Rankin, R. L. Seaman, F. C.
   Shelly, K. W. Wierzchoś. 0.68 m Schmidt + 10K CCD.
(B72) Soerth  (N50.698509 E7.681100)  Germany.  Observer B. Koch. 0.36-m
   f/7.6 Schmidt-Cassegrain + CCD + f/7.6 focal reducer.
(I52) Steward Observatory, Mt. Lemmon Station  (N32.442544 W110.788920)
   US/Arizona.  Observers T. A. Pruyne, B. M. Africano, E. J. Christensen, G.
   A. Farneth, D. C. Fuls, A. R. Gibbs, A. D. Grauer, H. Gröller, J. A.
   Johnson, R. A. Kowalski, S. M. Larson, G. J. Leonard, D. Rankin, R. L.
   Seaman, F. C. Shelly, K. W. Wierzchoś. 1.0-m reflector + CCD.
(J95) Great Shefford  (N51.474969 W1.447003)  UK/England.  Observer P.
   Birtwhistle. 0.41-m f/6.3 Schmidt-Cassegrain + CCD.
(K63) G. Pascoli Observatory, Castelvecchio Pascoli  (N44.082407 E10.462000)
   Italy.  Observer R. Bacci. 0.41-m f/3.2 Newtonian reflector + CCD.
(K74) Muensterschwarzach Observatory, Schwarzach  (N49.805276 E10.236400)
   Germany.  Observer C. Gerhard. 0.30-m f/3.75 Newtonian reflector + CCD.
(L01) Višnjan Observatory, Tičan  (N45.290897 E13.749300)  Croatia.
   Observers K. Korlević, D. Pujagic, V. Dobos. Measurers D. Pujagic, K.
   Korlević. 1.0-m f/2.9 reflector + CCD.
(L06) Sormano 2 Observatory, Bellagio Via Lattea  (N45.970100 E9.254030)
   Italy.  Observer G. Ventre. Measurers G. Ventre, P. Sicoli. 0.28-m f/10
   reflector + CCD.

Orbital elements:  C3CRZZ1
   Perihelion 2023 Feb 18.30123 +/- 0.0286 TT =  7:13:46 (JD 2459993.80123)
Epoch 2022 Nov 24.0 TT = JDT 2459907.5   Earth MOID: 0.0216   Ve: 0.0752
M 256.41451877 +/- 0.048            (J2000 ecliptic)          AutoNEOCP
n   1.20027812 +/- 0.000166         Peri.  314.17421 +/- 0.019
a   0.87689606 +/- 8.08e-5          Node   241.42762 +/- 0.0007
e   0.3241028 +/- 0.000189          Incl.   25.26027 +/- 0.027
P   0.82/299.92d           H 25.2   G  0.15   U  6.9
q 0.59269158 +/- 0.000113    Q 1.16110055 +/- 0.000271
45 of 46 observations 2022 Nov. 23-24 (40.3 hr); mean residual 0".45
Residuals in arcseconds: 
221123 703  .25+  .37-    221124 B72  .59-  1.0-    221124 K74  .24-  .20-    
221124 703  .32+  1.3+    221124 595  .00   .35-    221124 104  .27-  .85-    
221124 703  .09-  .18+    221124 K74  .22-  .82-    221124 203  .09-  .47-    
221124 703( 2.1+  3.3+)   221124 L06  .15+  .03-    221124 104  .25+  .59-    
221124 I52  .07-  .24+    221124 L06  .57-  .02+    221124 203  .52-  .02-    
221124 I52  .05-  .24+    221124 K74  .05+  1.1-    221124 595  .27-  .62-    
221124 I52  .02+  .20+    221124 K74  .52-  1.2-    221124 595  .04+  .09-    
221124 I52  .06-  .15+    221124 L01  .00   .02-    221124 K63  .22+  .85-    
221124 I52  .03+  .37+    221124 L01  .30-  .29+    221124 K63  .62-  1.2-    
221124 I52  .11+  .08+    221124 L01  .23-  .46+    221124 J95  .06+  .27+    
221124 I52  .28-  .15+    221124 L01  .32+  .16+    221124 J95  .23-  .11+    
221124 I52  .23-  .18+    221124 L01  .16+  .35+    221124 J95  .16+  .42+    
221124 204  .08+  .54+    221124 K74  .24+  .49-    221124 J95  .36+  .15-    
221124 B72  .48-  .99-    221124 K74  .42-  .33-    221124 J95  .11+  .30+    
221124 204  .06+  .14-    221124 203  .33+  .89-    
221124 B72  .33-  .92-    221124 104  .51-  .33-    

Ephemerides (geocentric):
Date (UTC) HH   RA             Dec           delta  r     elong  mag " sig PA
---- --------  ------------   ------------  ------ ------ -----  --- --------
2022 11 24 21  02 02 47.467   +12 52 21.41  .03028 1.0138 150.8 18.9 .194 157
2022 11 24 22  02 01 53.254   +12 15 12.61  .03020 1.0137 150.3 18.9 .203 157
2022 11 24 23  02 00 59.050   +11 37 52.69  .03013 1.0135 149.9 18.9 .212 158
2022 11 25 00  02 00 04.858   +11 00 22.20  .03007 1.0133 149.4 18.9 .221 158
2022 11 25 01  01 59 10.678   +10 22 41.72  .03001 1.0131 148.9 18.9 .230 158
2022 11 25 02  01 58 16.513   +09 44 51.84  .02995 1.0129 148.4 18.9 .239 158
2022 11 25 03  01 57 22.365   +09 06 53.16  .02990 1.0127 147.9 18.9 .248 158
2022 11 25 04  01 56 28.235   +08 28 46.32  .02985 1.0125 147.4 19.0 .258 159
2022 11 25 05  01 55 34.125   +07 50 31.94  .02981 1.0123 146.9 19.0 .267 159
2022 11 25 06  01 54 40.037   +07 12 10.66  .02977 1.0121 146.3 19.0 .277 159
2022 11 25 07  01 53 45.972   +06 33 43.14  .02973 1.0120 145.8 19.0 .286 159
2022 11 25 08  01 52 51.933   +05 55 10.05  .02970 1.0118 145.3 19.0 .296 159
2022 11 25 09  01 51 57.921   +05 16 32.07  .02967 1.0116 144.7 19.0 .305 160
2022 11 25 10  01 51 03.937   +04 37 49.88  .02965 1.0114 144.2 19.0 .315 160
2022 11 25 11  01 50 09.984   +03 59 04.17  .02963 1.0112 143.6 19.0 .325 160
2022 11 25 12  01 49 16.063   +03 20 15.63  .02961 1.0110 143.0 19.1 .334 160
2022 11 25 13  01 48 22.176   +02 41 24.97  .02960 1.0108 142.5 19.1 .344 160
2022 11 25 14  01 47 28.324   +02 02 32.89  .02959 1.0106 141.9 19.1 .354 161
2022 11 25 15  01 46 34.509   +01 23 40.10  .02959 1.0104 141.3 19.1 .364 161
2022 11 25 16  01 45 40.734   +00 44 47.31  .02959 1.0102 140.7 19.1 .374 161
2022 11 25 17  01 44 46.999   +00 05 55.22  .02960 1.0101 140.2 19.1 .383 161
2022 11 25 18  01 43 53.306   -00 32 55.47  .02961 1.0099 139.6 19.1 .393 162
2022 11 25 19  01 42 59.657   -01 11 44.03  .02963 1.0097 139.0 19.2 .403 162
2022 11 25 20  01 42 06.053   -01 50 29.79  .02964 1.0095 138.4 19.2 .413 162
2022 11 25 21  01 41 12.497   -02 29 12.04  .02967 1.0093 137.8 19.2 .422 162
2022 11 25 22  01 40 18.989   -03 07 50.09  .02970 1.0091 137.2 19.2 .432 162
2022 11 25 23  01 39 25.532   -03 46 23.28  .02973 1.0089 136.6 19.2 .441 163
2022 11 26 00  01 38 32.126   -04 24 50.91  .02976 1.0087 136.0 19.3 .451 163
2022 11 26 01  01 37 38.774   -05 03 12.33  .02980 1.0085 135.4 19.3 .460 163
2022 11 26 02  01 36 45.477   -05 41 26.90  .02985 1.0083 134.8 19.3 .470 163
2022 11 26 03  01 35 52.237   -06 19 33.96  .02990 1.0081 134.2 19.3 .479 163
2022 11 26 04  01 34 59.054   -06 57 32.90  .02995 1.0080 133.6 19.3 .488 164
2022 11 26 05  01 34 05.932   -07 35 23.09  .03000 1.0078 133.0 19.3 .497 164
2022 11 26 06  01 33 12.870   -08 13 03.93  .03006 1.0076 132.4 19.4 .506 164
2022 11 26 07  01 32 19.871   -08 50 34.85  .03013 1.0074 131.8 19.4 .515 164
2022 11 26 08  01 31 26.936   -09 27 55.28  .03020 1.0072 131.2 19.4 .524 164
2022 11 26 09  01 30 34.067   -10 05 04.65  .03027 1.0070 130.6 19.4 .533 165
2022 11 26 10  01 29 41.265   -10 42 02.44  .03035 1.0068 130.0 19.5 .541 165
2022 11 26 11  01 28 48.532   -11 18 48.13  .03043 1.0066 129.4 19.5 .550 165
2022 11 26 12  01 27 55.868   -11 55 21.21  .03051 1.0064 128.8 19.5 .558 165
2022 11 26 13  01 27 03.276   -12 31 41.21  .03060 1.0062 128.3 19.5 .566 165
2022 11 26 14  01 26 10.757   -13 07 47.67  .03069 1.0060 127.7 19.5 .574 166
2022 11 26 15  01 25 18.312   -13 43 40.13  .03079 1.0058 127.1 19.6 .582 166
2022 11 26 16  01 24 25.942   -14 19 18.19  .03089 1.0056 126.5 19.6 .590 166
2022 11 26 17  01 23 33.650   -14 54 41.43  .03099 1.0055 125.9 19.6 .598 166
2022 11 26 18  01 22 41.435   -15 29 49.46  .03110 1.0053 125.3 19.6 .605 166
2022 11 26 19  01 21 49.300   -16 04 41.93  .03121 1.0051 124.8 19.7 .612 166
2022 11 26 20  01 20 57.246   -16 39 18.50  .03132 1.0049 124.2 19.7 .620 167